Regional Weather Roundup
Issued by NWS

Home | Current Version | Previous Version | Text Only | Print | Product List | Glossary On
Versions: 1 2 3 4 5 6 7 8 9 10 11 12 13 14 15 16 17 18 19 20 21 22 23 24 25 26 27 28 29 30 31 32 33 34 35 36 37 38 39 40 41 42 43 44 45 46 47 48 49 50
000
ASUS43 KLSX 280707
RWRMO

WEATHER SUMMARY FOR MISSOURI
NATIONAL WEATHER SERVICE SPRINGFIELD MO
100 AM CST FRI NOV 28 2014

NOTE: "FAIR" INDICATES FEW OR NO CLOUDS BELOW 12,000 FEET WITH NO
       SIGNIFICANT WEATHER AND/OR OBSTRUCTIONS TO VISIBILITY.
       CURRENT SKY AND/OR WEATHER CONDITIONS ARE NOT AVAILABLE FOR
       CHILLICOTHE AND FARMINGTON.

MOZ001>031-035>038-043-044-053-054-280800-
...NORTHERN AND WESTERN MISSOURI...

CITY           SKY/WX    TMP DP  RH WIND       PRES   REMARKS
KANSAS CTY INT CLEAR     31  23  72 SE13      30.19F WCI  21
KANSAS C DTWN  CLEAR     33  22  63 S6        30.22F WCI  28
LEE`S SUMMIT   CLEAR     31  22  69 S10G18    30.22F WCI  22
ST JOSEPH      CLEAR     30  23  75 S14       30.18F WCI  19
CHILLICOTHE      N/A     29  23  78 SE8       30.25F WCI  21
KIRKSVILLE     MOCLDY    20  15  81 E9        30.30F WCI   9

$$
MOZ066>068-077>081-088>096-101>105-280800-
...SOUTHWEST MISSOURI...

CITY           SKY/WX    TMP DP  RH WIND       PRES   REMARKS
SPRINGFIELD    CLEAR     34  22  61 S14       30.27F WCI  25
JOPLIN         CLEAR     34  23  64 S8        30.26F WCI  27

$$
MOZ032>034-039>042-045>050-055>058-069>072-280800-
...CENTRAL MISSOURI...

CITY           SKY/WX    TMP DP  RH WIND       PRES   REMARKS
COLUMBIA       PTCLDY    29  24  82 SE9       30.31F WCI  20
JEFFERSON CITY PTCLDY    30  25  81 E6        30.34F WCI  24
ROLLA            N/A     29  21  72 SE10      30.29F WCI  20
SEDALIA        FAIR      29  24  82 SE9       30.28F WCI  20
WHITEMAN AFB   CLEAR     31  23  73 SE7       30.25F WCI  24
WARRENSBURG    CLEAR     30  23  74 SE7       30.25F WCI  23
OSAGE BEACH    CLEAR     28  21  74 SE5       30.30F WCI  23

$$
MOZ051-052-059>065-280800-
...EAST CENTRAL MISSOURI...

CITY           SKY/WX    TMP DP  RH WIND       PRES   REMARKS
ST LOUIS INTL  CLOUDY    26  19  74 SE9       30.40F WCI  17
SPIRIT OF STL  CLOUDY    27  19  72 E7        30.38F WCI  19
ST CHARLES     CLOUDY    25  19  78 SE9       30.41F WCI  15

$$
MOZ072>076-082>087-097>100-106>115-280800-
...SOUTH CENTRAL AND SOUTHEAST MISSOURI...

CITY           SKY/WX    TMP DP  RH WIND       PRES   REMARKS
CAPE GIRARDEAU PTCLDY    29  27  92 E5        30.42F WCI  24
FARMINGTON     MOCLDY    28  25  86 CALM      30.38F
POPLAR BLUFF   CLEAR     27  23  85 CALM      30.41F FOG
WEST PLAINS    CLEAR     29  20  69 S5        30.34F WCI  24

$$


USA.gov is the U.S. government's official web portal to all federal, state and local government web resources and services.